[[{"header":{"parameterUnit":"m.s-1","parameterCategory":1,"la1":30.2991,"la2":30.254,"lo1":-89.0895,"lo2":-89.0444,"dy":0.0017,"dx":0.0017,"nx":28,"ny":28,"refTime":"2023-11-16T09:00:00:Z","depth":0,"parameterNumber":2,"parameterNumberName":"U-component_of_WINDS"},"data":[0,0,0,0,0,0,0,0,0,0,0,0,0,0,0,0,0,0,0,0,0,0,0,0,0,0,0,0,0,0,0,0,0,0,0,0,0,0,0,0,0,0,0,0,0,0,0,0,0,0,0,0,0,0,0,0,0,0,0.627,0.6271,0,0.6307,0.6308,0.6308,0.6316,0.6316,0.6315,0.6315,0.6352,0.6353,0.6354,0,0,0,0,0,0,0,0,0,0,0,0,0,0.6206,0.6207,0.627,0.6271,0.6271,0.6307,0.6308,0.6308,0.6316,0.6315,0.6315,0.6315,0.6351,0.6353,0.6354,0,0,0,0,0,0,0,0,0,0,0,0,0,0.6237,0.6207,0.627,0.6279,0.628,0.6307,0.6308,0.6309,0.6316,0.6315,0.6315,0.6315,0.6351,0.6353,0.6354,0.6374,0,0,0.636,0.6361,0,0,0,0,0,0,0,0,0.6236,0.624,0.6277,0.6279,0.628,0.6307,0.6299,0.6331,0.6316,0.6302,0.6315,0.6314,0.6337,0.634,0.6348,0.6376,0.6378,0.636,0.6361,0.6362,0.6363,0,0,0,0,0,0,0,0.6233,0.6238,0.6285,0.6278,0.628,0.6282,0.6286,0.6305,0.6321,0.6304,0.6304,0.6309,0.6337,0.6346,0.6349,0.6378,0.636,0.6362,0.6363,0.6364,0.6427,0.6428,0,0,0,0,0,0,0.623,0.6236,0.6284,0.6286,0.6256,0.6283,0.6288,0.6298,0.6321,0.6324,0.6309,0.6309,0.6343,0.6346,0.635,0.6377,0.6362,0.6364,0.6365,0.6427,0.6427,0.6428,0,0,0,0,0,0,0.6228,0.6234,0.6282,0.6261,0.6268,0.6285,0.6297,0.6299,0.6308,0.6325,0.6328,0.6314,0.6343,0.6347,0.6369,0.6378,0.6365,0.6366,0.6426,0.6427,0.6428,0.6429,0,0,0,0,0,0,0.6226,0.6233,0.6241,0.6262,0.6269,0.63,0.6297,0.63,0.6311,0.6311,0.6331,0.6334,0.6343,0.6366,0.6371,0.638,0.6368,0.6425,0.6426,0.6427,0.6428,0.643,0.6431,0,0,0,0,0,0.6224,0.6239,0.6241,0.6247,0.6279,0.6301,0.6305,0.6315,0.6312,0.632,0.6332,0.6334,0.6376,0.6368,0.6373,0.6384,0.6425,0.6426,0.6427,0.6428,0.6429,0.6431,0,0,0,0,0,0,0.6218,0.6242,0.6244,0.6266,0.6282,0.6302,0.6312,0.6316,0.6332,0.6332,0.6343,0.6348,0.6369,0.6378,0.6369,0.6405,0.64,0.6403,0.6399,0.6401,0.6402,0.64,0.6369,0,0,0,0,0,0.6219,0.6235,0.6255,0.6273,0.628,0.6295,0.6305,0.6312,0.6328,0.6334,0.6347,0.6362,0.638,0.639,0.6407,0.6429,0.6435,0.6439,0.6441,0.6442,0.6444,0.6459,0.6462,0.6432,0.6432,0.6432,0,0,0.6221,0.6237,0.6246,0.6272,0.6284,0.6302,0.63,0.6318,0.6331,0.6336,0.6358,0.6369,0.6387,0.6409,0.642,0.6418,0.6454,0.6443,0.6444,0.6446,0.6461,0.6463,0.6466,0.6433,0.6433,0.6433,0,0,0.6235,0.6248,0.6265,0.6278,0.6298,0.6308,0.6312,0.6332,0.634,0.6362,0.6367,0.6383,0.6411,0.6425,0.6435,0.6456,0.6459,0.6461,0.6469,0.6483,0.6486,0.6488,0.6497,0.65,0.6463,0.6463,0.6463,0,0.6236,0.6262,0.6273,0.6291,0.6303,0.631,0.6328,0.634,0.6363,0.6372,0.6369,0.6407,0.6419,0.6446,0.6452,0.6459,0.6466,0.6459,0.6485,0.6487,0.6489,0.6498,0.6502,0.6463,0.6463,0.6463,0.6463,0,0.6262,0.628,0.6292,0.6316,0.6329,0.6347,0.6361,0.6373,0.6379,0.639,0.6413,0.6429,0.6449,0.6456,0.6461,0.6485,0.6483,0.6482,0.6478,0.6492,0.6501,0.6504,0.6464,0.6464,0.6463,0.6463,0,0,0.6272,0.6304,0.6308,0.632,0.6343,0.6357,0.6376,0.6398,0.6408,0.6425,0.6442,0.6467,0.6467,0.6479,0.6486,0.6499,0.6517,0.6497,0.6497,0.6501,0.6546,0.6548,0.6551,0.6519,0.652,0.652,0.6545,0,0.629,0.6324,0.6335,0.6364,0.6382,0.639,0.6406,0.6423,0.6434,0.645,0.6462,0.6481,0.6479,0.6486,0.6499,0.6512,0.6526,0.651,0.6536,0.6537,0.6532,0.6556,0.6557,0.658,0.6549,0.6549,0.655,0,0.6314,0.6333,0.6364,0.6387,0.6395,0.6409,0.6431,0.6447,0.6466,0.6473,0.6488,0.6495,0.6516,0.6509,0.6539,0.6528,0.6539,0.6547,0.6548,0.6552,0.6545,0.6561,0.6587,0.6591,0.6555,0.6554,0.6554,0,0.632,0.6353,0.6376,0.6386,0.6413,0.6424,0.6435,0.6454,0.6467,0.6486,0.6495,0.6516,0.6527,0.6544,0.6556,0.655,0.6586,0.658,0.6593,0.6593,0.6601,0.66,0.663,0.6606,0.6606,0.6605,0.6605,0,0.6339,0.6358,0.638,0.6394,0.6416,0.6429,0.6451,0.6463,0.648,0.6498,0.6505,0.6521,0.6536,0.6555,0.6565,0.6589,0.6594,0.6601,0.6604,0.6601,0.66,0.6609,0.6609,0.6606,0.6606,0.6606,0.6606,0,0.6349,0.6364,0.6391,0.6415,0.6422,0.6437,0.6458,0.6473,0.6485,0.6507,0.6513,0.6532,0.6554,0.6568,0.6596,0.6603,0.663,0.6632,0.6624,0.6626,0.6639,0.6638,0.6676,0.6683,0.6653,0.6653,0.6654,0,0.6361,0.6376,0.6403,0.6416,0.6428,0.6448,0.6462,0.6476,0.649,0.6515,0.6527,0.655,0.657,0.6605,0.6622,0.6644,0.6647,0.6658,0.665,0.6648,0.6649,0.6648,0.6651,0.666,0.666,0.666,0.6661,0,0.638,0.6388,0.6407,0.6431,0.6448,0.6466,0.6485,0.6495,0.6512,0.6528,0.6552,0.6567,0.6597,0.6621,0.6645,0.6657,0.6663,0.6663,0.6668,0.6666,0.6662,0.6666,0.663,0.6662,0.6662,0.6662,0.6662,0.6662,0.6393,0.6407,0.6429,0.6452,0.6468,0.6486,0.6502,0.6517,0.6537,0.6563,0.657,0.6596,0.6617,0.665,0.6663,0.6684,0.6682,0.6688,0.669,0.6692,0.6693,0.6658,0.6688,0.6688,0.6688,0.6688,0.6688,0,0.6414,0.6429,0.645,0.6477,0.6495,0.6499,0.652,0.6536,0.6558,0.6578,0.6597,0.6626,0.665,0.6669,0.6693,0.6706,0.6709,0.6712,0.6712,0.6715,0.6692,0.6687,0.6709,0.6709,0.6709,0.6709,0.6709,0.6709,0.6427,0.6453,0.6463,0.6498,0.6513,0.6539,0.6551,0.6568,0.6584,0.6616,0.6636,0.6649,0.6669,0.6695,0.6718,0.6723,0.6732,0.6735,0.6741,0.6719,0.6717,0.6714,0.6709,0.6737,0.6737,0.6763,0.6763,0.6763]},{"header":{"parameterUnit":"m.s-1","parameterCategory":1,"la1":30.2991,"la2":30.254,"lo1":-89.0895,"lo2":-89.0444,"dy":0.0017,"dx":0.0017,"nx":28,"ny":28,"refTime":"2023-11-16T09:00:00:Z","depth":0,"parameterNumber":3,"parameterNumberName":"V-component_of_WINDS"},"data":[0,0,0,0,0,0,0,0,0,0,0,0,0,0,0,0,0,0,0,0,0,0,0,0,0,0,0,0,0,0,0,0,0,0,0,0,0,0,0,0,0,0,0,0,0,0,0,0,0,0,0,0,0,0,0,0,0,0,-2.7167,-2.7167,0,-2.7164,-2.7163,-2.7163,-2.7165,-2.7165,-2.7165,-2.7165,-2.716,-2.716,-2.716,0,0,0,0,0,0,0,0,0,0,0,0,0,-2.7172,-2.7172,-2.7167,-2.7167,-2.7166,-2.7164,-2.7163,-2.7163,-2.7165,-2.7165,-2.7165,-2.7165,-2.716,-2.716,-2.716,0,0,0,0,0,0,0,0,0,0,0,0,0,-2.7169,-2.7172,-2.7167,-2.7167,-2.7167,-2.7164,-2.7163,-2.7163,-2.7165,-2.7165,-2.7165,-2.7165,-2.716,-2.716,-2.716,-2.7155,0,0,-2.7159,-2.7158,0,0,0,0,0,0,0,0,-2.717,-2.7169,-2.7167,-2.7167,-2.7167,-2.7165,-2.7164,-2.7161,-2.7165,-2.7165,-2.7165,-2.7165,-2.7161,-2.7161,-2.716,-2.7155,-2.7155,-2.7159,-2.7158,-2.7158,-2.7158,0,0,0,0,0,0,0,-2.717,-2.7169,-2.7165,-2.7167,-2.7167,-2.7167,-2.7166,-2.7163,-2.7163,-2.7165,-2.7166,-2.7165,-2.7161,-2.716,-2.716,-2.7155,-2.7159,-2.7158,-2.7158,-2.7158,-2.7146,-2.7146,0,0,0,0,0,0,-2.717,-2.717,-2.7165,-2.7165,-2.7169,-2.7167,-2.7166,-2.7165,-2.7163,-2.7163,-2.7165,-2.7165,-2.7161,-2.716,-2.716,-2.7155,-2.7158,-2.7158,-2.7158,-2.7146,-2.7146,-2.7146,0,0,0,0,0,0,-2.717,-2.717,-2.7166,-2.7167,-2.7167,-2.7166,-2.7165,-2.7165,-2.7164,-2.7163,-2.7162,-2.7164,-2.7161,-2.716,-2.7157,-2.7154,-2.7158,-2.7158,-2.7146,-2.7146,-2.7146,-2.7144,0,0,0,0,0,0,-2.7171,-2.717,-2.7168,-2.7167,-2.7167,-2.7163,-2.7165,-2.7165,-2.7164,-2.7164,-2.7162,-2.7161,-2.7161,-2.7157,-2.7156,-2.7154,-2.7157,-2.7147,-2.7146,-2.7146,-2.7145,-2.7144,-2.7144,0,0,0,0,0,-2.7171,-2.7168,-2.7168,-2.7168,-2.7165,-2.7163,-2.7162,-2.7162,-2.7164,-2.7162,-2.7161,-2.7161,-2.7155,-2.7157,-2.7156,-2.7153,-2.7147,-2.7146,-2.7146,-2.7145,-2.7144,-2.7144,0,0,0,0,0,0,-2.7167,-2.7167,-2.7168,-2.7165,-2.7164,-2.7163,-2.7161,-2.7162,-2.716,-2.716,-2.7159,-2.7159,-2.7155,-2.7154,-2.7156,-2.7149,-2.7151,-2.7151,-2.715,-2.715,-2.7149,-2.7149,-2.7157,0,0,0,0,0,-2.7167,-2.7165,-2.7165,-2.7162,-2.7161,-2.7161,-2.716,-2.716,-2.7159,-2.7158,-2.7157,-2.7155,-2.7153,-2.7151,-2.7149,-2.7145,-2.7144,-2.7143,-2.7142,-2.7142,-2.7141,-2.7139,-2.7139,-2.7145,-2.7145,-2.7145,0,0,-2.7164,-2.7164,-2.7163,-2.7161,-2.716,-2.7158,-2.7161,-2.7158,-2.7157,-2.7158,-2.7154,-2.7154,-2.7152,-2.7148,-2.7146,-2.7147,-2.714,-2.7142,-2.7141,-2.7141,-2.7139,-2.7138,-2.7138,-2.7145,-2.7145,-2.7145,0,0,-2.7159,-2.7159,-2.7156,-2.7156,-2.7155,-2.7155,-2.7155,-2.7154,-2.7153,-2.715,-2.7151,-2.7149,-2.7145,-2.7144,-2.7142,-2.7138,-2.7138,-2.7137,-2.7134,-2.7132,-2.7132,-2.7131,-2.7129,-2.7129,-2.7136,-2.7136,-2.7136,0,-2.7156,-2.7153,-2.7155,-2.7153,-2.7152,-2.7154,-2.7151,-2.715,-2.7148,-2.7148,-2.7149,-2.7144,-2.7143,-2.7139,-2.7138,-2.7137,-2.7136,-2.7137,-2.7132,-2.7131,-2.7131,-2.7129,-2.7129,-2.7136,-2.7136,-2.7136,-2.7136,0,-2.715,-2.7148,-2.7146,-2.7145,-2.7144,-2.7142,-2.7143,-2.7142,-2.7142,-2.7142,-2.7139,-2.7138,-2.7135,-2.7135,-2.7135,-2.7131,-2.7131,-2.7132,-2.7134,-2.713,-2.7129,-2.7128,-2.7136,-2.7136,-2.7136,-2.7136,0,0,-2.7141,-2.7142,-2.7141,-2.7141,-2.7141,-2.7139,-2.7137,-2.7136,-2.7135,-2.7134,-2.7132,-2.7129,-2.713,-2.7128,-2.7129,-2.7127,-2.7123,-2.7128,-2.7128,-2.7127,-2.7119,-2.7118,-2.7117,-2.7124,-2.7124,-2.7123,-2.7119,0,-2.7136,-2.7133,-2.7134,-2.7131,-2.7129,-2.7131,-2.7129,-2.7129,-2.7129,-2.7127,-2.7127,-2.7125,-2.7127,-2.7126,-2.7125,-2.7124,-2.7121,-2.7124,-2.7121,-2.7121,-2.7121,-2.7116,-2.7115,-2.711,-2.7118,-2.7118,-2.7118,0,-2.7129,-2.7128,-2.7125,-2.7126,-2.7125,-2.7123,-2.7122,-2.7121,-2.7121,-2.7121,-2.712,-2.7121,-2.7118,-2.712,-2.7117,-2.7119,-2.7118,-2.7118,-2.7117,-2.7117,-2.7119,-2.7115,-2.7109,-2.7108,-2.7117,-2.7117,-2.7117,0,-2.7123,-2.7121,-2.7119,-2.7119,-2.712,-2.7119,-2.7119,-2.7118,-2.7118,-2.7117,-2.7116,-2.7115,-2.7114,-2.7113,-2.7113,-2.7114,-2.7109,-2.7112,-2.7109,-2.7109,-2.7107,-2.7107,-2.7101,-2.7107,-2.7107,-2.7107,-2.7107,0,-2.7116,-2.7114,-2.7117,-2.7115,-2.7113,-2.7115,-2.7112,-2.7112,-2.7112,-2.7111,-2.7113,-2.7111,-2.7112,-2.711,-2.7111,-2.7108,-2.7107,-2.7107,-2.7107,-2.7107,-2.7107,-2.7106,-2.7106,-2.7107,-2.7107,-2.7107,-2.7107,0,-2.7109,-2.711,-2.7108,-2.711,-2.711,-2.7108,-2.7109,-2.7108,-2.7108,-2.7106,-2.7106,-2.7107,-2.7105,-2.7106,-2.7104,-2.7104,-2.71,-2.7101,-2.7101,-2.7101,-2.7098,-2.7098,-2.709,-2.7089,-2.7097,-2.7097,-2.7097,0,-2.7104,-2.7102,-2.7104,-2.7104,-2.7104,-2.7103,-2.7103,-2.7105,-2.7104,-2.7104,-2.7102,-2.7101,-2.71,-2.7097,-2.7097,-2.7096,-2.7096,-2.7094,-2.7096,-2.7096,-2.7096,-2.7096,-2.7096,-2.7093,-2.7093,-2.7093,-2.7093,0,-2.7096,-2.7097,-2.7096,-2.7097,-2.7096,-2.7096,-2.7096,-2.7096,-2.7098,-2.7097,-2.7096,-2.7095,-2.7094,-2.7092,-2.7091,-2.7091,-2.7092,-2.7092,-2.7092,-2.7091,-2.7091,-2.7091,-2.7099,-2.7092,-2.7092,-2.7092,-2.7092,-2.7092,-2.7089,-2.7088,-2.7089,-2.7089,-2.7089,-2.709,-2.7089,-2.709,-2.7089,-2.7089,-2.709,-2.7088,-2.7088,-2.7087,-2.7087,-2.7086,-2.7087,-2.7086,-2.7085,-2.7085,-2.7085,-2.7092,-2.7085,-2.7086,-2.7086,-2.7086,-2.7086,0,-2.708,-2.7082,-2.7081,-2.7082,-2.7082,-2.7084,-2.7085,-2.7084,-2.7083,-2.7083,-2.7083,-2.7082,-2.7081,-2.7081,-2.708,-2.7079,-2.708,-2.7079,-2.7079,-2.7079,-2.7084,-2.7084,-2.7079,-2.7079,-2.7079,-2.7079,-2.7079,-2.7079,-2.7076,-2.7074,-2.7076,-2.7075,-2.7076,-2.7075,-2.7075,-2.7075,-2.7076,-2.7075,-2.7074,-2.7075,-2.7076,-2.7075,-2.7074,-2.7074,-2.7074,-2.7072,-2.7073,-2.7077,-2.7078,-2.7079,-2.7079,-2.7072,-2.7072,-2.7068,-2.7068,-2.7067]}]]